Location: Austin
(30.3000°N, 97.7500°W)
Time: 23:27:38
(UTC-05:00)

ACS3 Solar Sail - Pass Details

Date: 05 September 2024
Orbit: 974 x 1033 km, 97.4° (Epoch: 14 September)

Event Time Altitude Azimuth Distance (km) Brightness Sun altitude
Exits shadow 21:09:27 26° 92° (E) 1,888 2.7 -17.9°
Maximum altitude 21:10:54 29° 70° (ENE) 1,795 2.8 -18.2°
Drops below altitude 10° 21:16:16 10° 13° (NNE) 2,842 4.3 -19.3°
Sets 21:19:06 0° 3° (N) 3,799 5.1 -19.9°
